#datint,netname,site,siteID,timestamp,IntT,BattV,AirT2,AirT,AirT_Avg,AirT_Max,AirT_Min,RH_Avg,RH_Max,RH_Min,EA_Avg,Td_Avg,Td_Max,Td_Min,WindS_Smp,WindS_Avg,WindD_Avg,WindD_SD,WindS_Max,ETo,ETr,SoilT4,SoilT8,SoilVWC8,SolarW_Avg,wetstate_Avg,wetT_Avg,Precip_accum,Precip_WPG,Precip_TB
15min,AgWx,beryljct,423,07JUL2019:00:00:00,56.6,12.97,54.2,54.0,54.7,57.0,51.9,32,38,27,0.474,25.2,27.6,23.5,3.529,4.9,180,5.5,6.4,0.00031,0.00045,71.3,71.2,9,0,.,.,16.05,0.00,0.00
15min,AgWx,beryljct,423,07JUL2019:00:15:00,55.7,12.95,49.4,50.7,53.2,54.9,50.7,37,46,33,0.569,27.8,30.9,25.8,4.494,3.9,175,5.6,5.3,0.00017,0.00027,71.1,71.2,10,0,.,.,16.05,0.00,0.00
15min,AgWx,beryljct,423,07JUL2019:00:30:00,54.8,12.95,60.2,58.4,54.6,58.4,50.5,33,45,26,0.444,25.8,30.1,23.3,4.45,4.5,183,4.5,5.7,0.00026,0.00039,70.8,71.1,9,0,.,.,16.05,0.00,0.00
15min,AgWx,beryljct,423,07JUL2019:00:45:00,54.9,12.94,58.7,60.6,59.4,61.2,56.8,26,28,24,0.456,24.6,25.5,23.3,4.779,5.2,182,5.9,6.4,0.00041,0.00059,70.6,71.1,10,0,.,.,16.05,0.00,0.00
15min,AgWx,beryljct,423,07JUL2019:01:00:00,55.5,12.93,57.0,58.6,59.0,60.7,57.3,29,32,26,0.486,26.5,27.9,25.1,5.656,5.4,186,4.2,6.2,0.00041,0.00058,70.3,71.0,9,0,.,.,16.04,0.00,0.00
15min,AgWx,beryljct,423,07JUL2019:01:15:00,55.7,12.93,60.7,61.0,58.2,61.0,56.6,31,36,26,0.477,27.4,30.3,25.6,4.713,5.2,184,5.4,6.1,0.00037,0.00053,70.0,70.9,10,0,.,.,16.05,0.00,0.00
15min,AgWx,beryljct,423,07JUL2019:01:30:00,56.0,12.92,57.0,57.4,60.2,61.2,57.4,26,32,24,0.511,25.5,27.6,23.5,3.705,4.7,182,4.1,6.1,0.00037,0.00054,69.8,70.9,10,0,.,.,16.05,0.00,0.00
15min,AgWx,beryljct,423,07JUL2019:01:45:00,56.1,12.91,60.9,58.7,59.8,62.8,57.1,29,41,22,0.510,26.9,35.1,23.1,3.661,3.4,173,12,4.4,0.00019,0.00031,69.5,70.8,9,0,.,.,16.04,0.00,0.00
15min,AgWx,beryljct,423,07JUL2019:02:00:00,56.3,12.91,54.9,55.3,59.3,63.0,55.3,30,37,22,0.544,27.9,30.7,22.9,3.266,4.1,173,19,7.4,0.00026,0.00041,69.3,70.7,9,0,.,.,16.05,0.00,0.00
15min,AgWx,beryljct,423,07JUL2019:02:15:00,56.0,12.9,57.2,54.9,55.3,57.6,53.3,40,52,27,0.619,30.7,36.2,23.8,6.971,4.8,145,11,7.0,0.00025,0.00037,69.0,70.7,10,0,.,.,16.05,0.00,0.00
15min,AgWx,beryljct,423,07JUL2019:02:30:00,55.4,12.89,55.9,55.6,55.9,57.1,54.7,40,46,35,0.542,32.0,35.0,29.0,4.362,5.1,159,12,7.2,0.00027,0.00039,68.8,70.6,9,0,.,.,16.05,0.00,0.00
15min,AgWx,beryljct,423,07JUL2019:02:45:00,54.7,12.89,57.0,53.2,55.0,57.3,52.8,38,46,30,0.556,30.0,33.6,26.4,4.538,3.8,176,10,4.5,0.00016,0.00026,68.5,70.5,9,0,.,.,16.05,0.00,0.00
15min,AgWx,beryljct,423,07JUL2019:03:00:00,54.4,12.88,60.7,59.8,57.8,59.8,53.6,30,38,27,0.477,26.7,29.7,24.7,4.889,4.6,178,3.2,5.6,0.00031,0.00046,68.3,70.4,9,0,.,.,16.05,0.00,0.00
15min,AgWx,beryljct,423,07JUL2019:03:15:00,54.4,12.87,60.1,58.6,58.1,60.2,56.4,31,36,27,0.474,27.7,29.9,25.1,3.968,4.2,183,4.4,6.1,0.00027,0.00041,68.0,70.3,9,0,.,.,16.05,0.00,0.00
15min,AgWx,beryljct,423,07JUL2019:03:30:00,54.9,12.88,62.0,60.5,61.0,62.0,58.8,27,30,23,0.493,26.6,28.5,24.1,4.45,4.6,179,5.5,8.3,0.00035,0.00053,67.8,70.2,10,0,.,.,16.05,0.00,0.00
15min,AgWx,beryljct,423,07JUL2019:03:45:00,55.5,12.88,60.7,62.5,61.2,63.0,59.9,27,29,26,0.542,27.0,29.1,25.5,4.45,5.1,196,8.4,7.1,0.00041,0.00060,67.5,70.1,9,0,.,.,16.05,0.00,0.00
15min,AgWx,beryljct,423,07JUL2019:04:00:00,56.7,12.88,64.1,63.6,62.8,65.7,61.0,28,33,21,0.511,28.9,31.7,25.1,4.976,5.1,210,4.2,7.2,0.00042,0.00061,67.3,70.0,10,0,.,.,16.04,0.00,0.00
15min,AgWx,beryljct,423,07JUL2019:04:15:00,57.2,12.87,53.9,54.9,60.8,63.7,54.9,31,47,23,0.686,29.6,35.3,24.6,3.464,3.9,155,26,6.5,0.00025,0.00039,67.1,69.9,10,0,.,.,16.04,0.00,0.00
15min,AgWx,beryljct,423,07JUL2019:04:30:00,56.2,12.86,50.4,51.6,53.4,54.9,51.6,52,59,45,0.770,36.2,37.8,34.1,5.305,3.2,131,7.9,5.8,0.00004,0.00009,66.9,69.8,10,0,.,.,16.04,0.00,0.00
15min,AgWx,beryljct,423,07JUL2019:04:45:00,54.3,12.84,50.9,49.2,49.2,51.5,47.5,63,68,58,0.692,37.2,39.4,35.1,3.486,3.3,173,23,5.4,-0.00001,0.00001,66.6,69.8,10,0,.,.,16.05,0.00,0.00
15min,AgWx,beryljct,423,07JUL2019:05:00:00,52.6,12.86,48.2,49.1,50.6,51.8,49.1,56,65,48,0.758,35.2,38.3,32.1,1.556,2.6,161,13,3.7,-0.00003,-0.00001,66.4,69.7,10,0,.,.,16.05,0.00,0.00
15min,AgWx,beryljct,423,07JUL2019:05:15:00,51.1,12.86,49.5,49.5,47.4,49.8,45.4,63,69,48,0.578,35.2,37.3,30.7,3.793,3.0,175,18,4.8,-0.00003,-0.00001,66.2,69.5,9,0,.,.,16.05,0.00,0.00
15min,AgWx,beryljct,423,07JUL2019:05:30:00,49.9,12.85,45.7,46.9,47.5,49.8,46.3,55,66,44,0.566,31.8,35.5,27.2,2.389,2.9,280,32,4.2,-0.00001,0.00002,66.0,69.4,10,0,.,.,16.05,0.01,0.00
15min,AgWx,beryljct,423,07JUL2019:05:45:00,48.9,12.85,47.4,48.0,47.7,49.0,45.9,44,56,35,0.455,26.4,31.2,22.4,1.03,1.4,292,0.0,2.5,0.00020,0.00034,65.8,69.3,10,0,.,.,16.05,0.00,0.00
15min,AgWx,beryljct,423,07JUL2019:06:00:00,48.1,12.84,48.8,48.3,47.4,48.3,46.6,46,57,36,0.422,27.5,32.2,22.9,3.376,1.3,293,3.1,3.5,0.00018,0.00031,65.6,69.2,10,0,.,.,16.05,0.00,0.00
15min,AgWx,beryljct,423,07JUL2019:06:15:00,47.6,12.85,44.5,44.4,46.2,48.3,44.4,47,55,37,0.523,26.6,29.4,23.0,4.187,4.2,321,10,4.9,0.00049,0.00085,65.4,69.1,10,2,.,.,16.05,0.00,0.00
15min,AgWx,beryljct,423,07JUL2019:06:30:00,47.0,12.85,45.5,45.0,44.9,46.2,43.7,49,55,43,0.505,26.8,28.6,25.0,3.091,4.2,342,5.4,5.1,0.00050,0.00083,65.2,69.0,9,12,.,.,16.05,0.00,0.00
15min,AgWx,beryljct,423,07JUL2019:06:45:00,47.3,12.87,46.6,46.9,47.1,48.3,45.1,44,51,39,0.550,26.0,29.6,23.7,3.99,4.3,348,3.2,5.4,0.00073,0.00113,65.0,68.9,9,44,.,.,16.05,0.00,0.00
15min,AgWx,beryljct,423,07JUL2019:07:00:00,47.9,12.89,45.7,46.4,46.5,47.9,45.7,52,58,46,0.588,29.9,31.8,27.9,1.754,2.8,344,3.5,4.1,0.00064,0.00090,64.8,68.8,9,76,.,.,16.05,0.00,0.00
15min,AgWx,beryljct,423,07JUL2019:07:15:00,48.9,12.89,47.9,47.4,46.8,47.4,45.9,55,61,48,0.644,31.6,33.6,28.1,1.403,2.7,322,11,4.5,0.00071,0.00095,64.6,68.7,10,98,.,.,16.05,0.00,0.00
15min,AgWx,beryljct,423,07JUL2019:07:30:00,50.4,12.92,51.3,50.9,49.4,50.9,47.4,58,64,46,0.653,35.0,38.1,28.9,3.047,1.6,9.8,24,3.2,0.00090,0.00108,64.4,68.6,9,168,.,.,16.05,0.00,0.00
15min,AgWx,beryljct,423,07JUL2019:07:45:00,52.7,12.91,53.4,53.0,51.8,53.0,50.9,52,59,43,0.613,34.5,37.7,31.2,0.723,1.6,38,1.1,3.2,0.00116,0.00138,64.2,68.5,9,206,.,.,16.04,0.00,0.00
15min,AgWx,beryljct,423,07JUL2019:08:00:00,54.9,12.96,54.7,54.5,53.5,54.5,52.9,54,61,43,0.770,37.0,40.8,31.8,0.702,0.3,2.4,13,1.1,0.00129,0.00140,64.0,68.4,10,246,.,.,16.04,0.00,0.00
15min,AgWx,beryljct,423,07JUL2019:08:15:00,57.9,13.13,58.5,58.0,56.4,58.0,54.5,42,54,34,0.560,33.6,38.6,29.7,1.03,1.5,355,0.1,2.5,0.00199,0.00228,63.9,68.3,10,358,.,.,16.05,0.00,0.00
15min,AgWx,beryljct,423,07JUL2019:08:30:00,60.8,13.19,58.9,59.1,58.9,59.3,58.0,37,42,33,0.711,32.4,35.8,29.7,0.395,0.3,358,1.8,1.6,0.00171,0.00187,63.7,68.1,9,295,.,.,16.04,0.00,0.00
15min,AgWx,beryljct,423,07JUL2019:08:45:00,61.7,13.27,59.9,59.6,59.0,59.6,58.7,47,52,42,0.860,38.5,41.4,36.0,1.206,0.7,0.6,0.0,2.3,0.00149,0.00167,63.6,68.0,9,233,.,.,16.04,0.00,0.00
15min,AgWx,beryljct,423,07JUL2019:09:00:00,62.2,13.42,62.0,61.6,60.1,61.6,59.6,56,62,43,0.849,44.2,47.0,38.7,0.373,0.8,356,1.8,1.3,0.00173,0.00191,63.6,67.9,9,274,.,.,16.03,0.00,0.00
15min,AgWx,beryljct,423,07JUL2019:09:15:00,63.1,13.51,63.0,63.0,62.1,63.0,61.6,45,51,37,0.720,40.5,43.6,36.1,0.636,0.7,358,2.7,1.4,0.00189,0.00209,63.6,67.8,9,288,.,.,16.03,0.00,0.00
15min,AgWx,beryljct,423,07JUL2019:09:30:00,63.8,13.57,63.0,63.0,63.0,63.2,62.9,40,46,34,0.883,38.1,42.0,34.1,0.68,0.7,0.6,0.0,1.2,0.00177,0.00197,63.6,67.7,9,257,.,.,16.03,0.00,0.00
15min,AgWx,beryljct,423,07JUL2019:09:45:00,65.4,14.21,66.5,66.0,64.5,66.0,63.0,41,46,38,0.868,40.3,42.5,38.0,0,0.5,0.6,0.0,1.4,0.00306,0.00333,63.7,67.6,9,490,.,.,16.03,0.00,0.00
15min,AgWx,beryljct,423,07JUL2019:10:00:00,69.0,14.11,69.3,69.4,67.9,69.5,66.1,37,43,31,0.839,40.8,44.2,37.3,0.921,0.1,25,10,1.4,0.00408,0.00435,63.8,67.5,9,649,.,.,16.03,0.00,0.00
15min,AgWx,beryljct,423,07JUL2019:10:15:00,73.0,14.07,73.8,72.7,71.1,72.7,69.4,33,37,30,0.934,40.8,44.4,37.4,4.297,2.8,81,14,5.9,0.00495,0.00568,63.9,67.4,9,725,.,.,16.02,0.00,0.00
15min,AgWx,beryljct,423,07JUL2019:10:30:00,75.9,14.04,76.5,77.3,75.2,77.3,72.8,26,37,20,0.744,37.9,44.9,32.4,7.125,5.9,124,39,11.9,0.00543,0.00672,64.1,67.3,9,696,.,.,16.02,0.00,0.00
15min,AgWx,beryljct,423,07JUL2019:10:45:00,77.8,13.95,76.1,77.4,76.9,77.7,75.9,23,28,19,0.703,36.4,40.1,32.3,11.03,9.3,181,20,17.3,0.00599,0.00785,64.4,67.2,9,690,.,.,16.02,0.00,0.00
15min,AgWx,beryljct,423,07JUL2019:11:00:00,78.9,13.93,76.8,77.8,77.2,78.2,75.9,21,25,18,0.646,33.9,38.1,30.3,11.33,11.3,181,14,15.4,0.00672,0.00893,64.7,67.2,9,768,.,.,16.02,0.00,0.00
15min,AgWx,beryljct,423,07JUL2019:11:15:00,80.0,13.97,76.5,78.1,78.0,79.1,76.9,21,26,17,0.801,35.1,39.2,29.7,8.33,10.7,187,16,17.1,0.00715,0.00933,65.0,67.1,9,848,.,.,16.02,0.00,0.00
15min,AgWx,beryljct,423,07JUL2019:11:30:00,80.6,13.91,78.6,78.4,78.0,78.5,77.5,20,25,18,0.600,34.2,39.3,31.6,13.75,14.5,175,16,23.0,0.00715,0.00979,65.3,67.1,9,765,.,.,16.02,0.00,0.00
15min,AgWx,beryljct,423,07JUL2019:11:45:00,80.8,13.9,79.4,79.2,78.6,79.7,76.9,20,24,17,0.653,34.2,37.5,30.7,11.71,13.8,184,14,21.1,0.00745,0.01007,65.6,67.0,9,820,.,.,16.01,0.00,0.00
15min,AgWx,beryljct,423,07JUL2019:12:00:00,81.4,13.51,79.1,79.0,78.9,79.6,78.2,20,23,17,0.657,34.5,37.7,30.9,14.93,13.5,183,14,17.8,0.00754,0.01013,66.0,67.0,9,837,.,.,16.01,0.00,0.00
15min,AgWx,beryljct,423,07JUL2019:12:15:00,81.4,13.5,78.9,78.1,78.3,79.2,77.5,21,25,17,0.674,35.5,39.1,31.1,17.52,13.2,195,12,22.7,0.00675,0.00920,66.2,66.9,9,701,.,.,16.01,0.00,0.00
15min,AgWx,beryljct,423,07JUL2019:12:30:00,81.1,13.51,78.9,79.0,78.2,79.0,77.4,21,25,19,0.660,35.1,39.4,32.8,14.05,15.9,202,11,21.8,0.00811,0.01096,66.5,66.9,9,928,.,.,16.01,0.00,0.00
15min,AgWx,beryljct,423,07JUL2019:12:45:00,81.3,13.51,78.2,78.6,78.9,79.3,78.2,21,24,18,0.731,35.5,38.2,32.3,12.1,15.8,205,14,23.1,0.00843,0.01131,66.7,66.9,9,976,.,.,16.01,0.00,0.00
15min,AgWx,beryljct,423,07JUL2019:13:00:00,81.5,13.47,80.3,79.6,79.2,80.2,78.5,21,25,18,0.871,35.8,41.0,31.4,5.897,14.0,203,13,21.6,0.00829,0.01099,67.0,66.9,9,972,.,.,16.01,0.00,0.00
15min,AgWx,beryljct,423,07JUL2019:13:15:00,82.4,13.59,79.1,80.4,80.8,81.6,79.7,19,25,16,0.718,34.4,40.6,31.3,16.77,14.2,185,17,22.2,0.00832,0.01112,67.2,66.9,9,932,.,.,16.01,0.00,0.00
15min,AgWx,beryljct,423,07JUL2019:13:30:00,83.2,13.48,79.6,80.2,80.1,81.4,78.8,23,28,18,0.760,38.9,44.6,33.8,17.84,12.8,207,15,19.5,0.00842,0.01095,67.5,66.9,9,1013,.,.,16.01,0.00,0.00
15min,AgWx,beryljct,423,07JUL2019:13:45:00,83.3,13.48,81.0,79.5,79.7,80.2,79.1,22,27,20,0.803,37.6,42.5,34.5,13.11,14.0,209,15,26.0,0.00829,0.01096,67.7,67.0,9,977,.,.,16.01,0.00,0.00
15min,AgWx,beryljct,423,07JUL2019:14:00:00,83.5,13.47,80.0,79.4,79.8,81.6,78.5,23,28,18,0.880,39.2,42.3,33.6,14.69,12.9,216,24,21.0,0.00804,0.01053,68.1,67.0,9,954,.,.,16.02,0.00,0.00
15min,AgWx,beryljct,423,07JUL2019:14:15:00,83.3,13.48,81.0,80.7,79.8,81.0,78.8,22,28,18,0.631,37.6,43.4,32.7,12.69,15.9,197,17,21.5,0.00759,0.01043,68.4,67.0,9,799,.,.,16.02,0.00,0.00
15min,AgWx,beryljct,423,07JUL2019:14:30:00,83.3,13.51,79.8,81.3,80.8,81.9,79.6,20,25,17,0.802,35.7,40.4,32.3,12.74,14.3,183,20,21.8,0.00790,0.01068,68.7,67.1,9,871,.,.,16.02,0.00,0.00
15min,AgWx,beryljct,423,07JUL2019:14:45:00,83.6,13.45,79.8,80.6,80.5,82.0,79.4,23,26,20,0.928,39.1,42.9,35.5,12.3,15.0,203,15,21.9,0.00864,0.01145,69.0,67.1,9,1012,.,.,16.01,0.00,0.00
15min,AgWx,beryljct,423,07JUL2019:15:00:00,83.8,13.5,78.9,79.3,79.9,81.2,78.8,24,27,21,0.800,39.8,42.4,37.0,14.86,14.1,205,18,24.5,0.00727,0.00984,69.3,67.2,9,797,.,.,16.02,0.00,0.00
15min,AgWx,beryljct,423,07JUL2019:15:15:00,83.3,13.49,77.6,78.2,79.0,80.2,78.2,24,27,21,0.773,39.4,42.3,36.4,18.22,14.7,209,13,21.6,0.00700,0.00957,69.6,67.2,9,758,.,.,16.02,0.01,0.00
15min,AgWx,beryljct,423,07JUL2019:15:30:00,82.4,13.49,77.9,77.7,77.8,78.5,77.2,24,28,22,0.720,38.6,41.6,36.1,14.49,13.7,206,15,22.9,0.00566,0.00802,69.9,67.3,9,524,.,.,16.02,0.00,0.00
15min,AgWx,beryljct,423,07JUL2019:15:45:00,81.8,13.48,77.8,78.2,78.1,79.0,77.3,24,27,21,0.782,37.9,40.6,35.5,11.07,12.6,198,13,19.1,0.00557,0.00784,70.2,67.3,9,532,.,.,16.02,0.00,0.00
15min,AgWx,beryljct,423,07JUL2019:16:00:00,81.6,13.49,77.9,77.5,78.0,78.8,77.4,25,29,22,0.836,39.5,43.1,35.8,13.13,12.8,206,13,20.7,0.00594,0.00820,70.4,67.4,9,628,.,.,16.02,0.00,0.00
15min,AgWx,beryljct,423,07JUL2019:16:15:00,81.7,13.48,77.3,77.0,77.9,78.8,76.8,26,30,22,0.914,40.3,43.7,36.5,7.848,10.5,217,15,18.8,0.00546,0.00741,70.6,67.5,9,599,.,.,16.02,0.01,0.00
15min,AgWx,beryljct,423,07JUL2019:16:30:00,81.8,13.48,78.2,78.6,78.7,79.8,77.1,24,29,18,0.866,39.0,42.6,33.0,14.58,12.7,201,17,19.7,0.00583,0.00811,70.7,67.6,9,614,.,.,16.02,0.00,0.00
15min,AgWx,beryljct,423,07JUL2019:16:45:00,81.9,13.53,79.7,79.7,78.8,79.7,78.2,23,25,20,0.725,37.6,40.0,35.3,19.38,14.2,195,13,23.4,0.00576,0.00824,70.8,67.6,9,562,.,.,16.02,0.00,0.00
15min,AgWx,beryljct,423,07JUL2019:17:00:00,82.1,13.49,78.3,78.7,79.1,80.3,78.2,22,26,19,0.791,37.2,41.1,33.8,13.5,14.0,200,17,19.8,0.00584,0.00835,71.0,67.7,9,581,.,.,16.02,0.00,0.00
15min,AgWx,beryljct,423,07JUL2019:17:15:00,82.1,13.47,78.4,79.2,79.0,79.7,78.1,22,26,20,0.701,37.2,40.8,34.9,14.8,14.7,193,11,22.9,0.00540,0.00795,71.0,67.8,9,492,.,.,16.02,0.00,0.00
15min,AgWx,beryljct,423,07JUL2019:17:30:00,81.4,13.55,78.2,77.6,78.2,79.2,77.5,22,24,19,0.725,36.1,38.3,33.6,12.56,14.1,196,13,23.8,0.00472,0.00715,71.0,67.9,9,370,.,.,16.02,0.00,0.00
15min,AgWx,beryljct,423,07JUL2019:17:45:00,81.2,13.51,79.0,77.8,78.2,79.4,77.3,23,26,19,0.787,37.2,40.7,33.3,16.57,13.3,210,15,19.9,0.00521,0.00754,71.0,68.0,9,512,.,.,16.02,0.00,0.00
15min,AgWx,beryljct,423,07JUL2019:18:00:00,81.6,13.47,79.1,79.5,79.0,79.8,77.9,22,25,20,0.720,36.9,40.2,34.2,13,14.5,206,11,21.1,0.00617,0.00875,70.9,68.0,9,626,.,.,16.02,0.00,0.00
15min,AgWx,beryljct,423,07JUL2019:18:15:00,82.5,13.46,78.9,79.0,79.9,80.8,79.0,20,23,18,0.679,35.3,38.6,32.4,19.88,14.3,198,15,22.8,0.00617,0.00880,70.8,68.1,9,612,.,.,16.02,0.00,0.00
15min,AgWx,beryljct,423,07JUL2019:18:30:00,82.5,13.46,79.0,79.0,79.1,79.5,78.7,20,22,18,0.654,34.0,36.7,31.8,12.8,14.8,209,13,22.6,0.00561,0.00827,70.7,68.1,9,511,.,.,16.02,0.00,0.00
15min,AgWx,beryljct,423,07JUL2019:18:45:00,82.5,13.45,80.2,79.9,79.7,80.1,79.0,18,21,17,0.582,32.3,36.1,30.5,20.54,14.9,197,11,22.5,0.00534,0.00805,70.6,68.3,9,451,.,.,16.02,0.00,0.00
15min,AgWx,beryljct,423,07JUL2019:19:00:00,82.2,13.44,78.1,79.1,79.1,80.2,78.6,17,20,14,0.587,30.0,34.9,26.5,14.47,16.9,200,13,24.8,0.00521,0.00818,70.5,68.3,9,374,.,.,16.02,0.00,0.00
15min,AgWx,beryljct,423,07JUL2019:19:15:00,81.7,13.33,79.2,78.5,78.8,79.4,78.0,18,20,16,0.651,31.5,34.1,28.6,13.61,15.0,201,13,23.3,0.00447,0.00712,70.4,68.3,9,311,.,.,16.02,0.00,0.00
15min,AgWx,beryljct,423,07JUL2019:19:30:00,81.0,13.25,78.1,78.3,78.2,78.8,77.9,18,20,16,0.578,31.7,33.9,29.0,13.5,14.7,204,11,22.3,0.00408,0.00663,70.2,68.4,9,261,.,.,16.02,0.00,0.00
15min,AgWx,beryljct,423,07JUL2019:19:45:00,80.6,13.21,77.5,78.1,78.5,79.2,78.1,18,20,17,0.648,31.9,33.5,29.7,11.68,14.7,188,12,20.8,0.00378,0.00634,70.1,68.4,9,208,.,.,16.02,0.01,0.00
15min,AgWx,beryljct,423,07JUL2019:20:00:00,79.9,13.18,76.4,77.3,77.8,78.3,77.3,19,20,18,0.649,32.8,33.8,32.0,8.88,13.0,191,10,18.3,0.00311,0.00537,69.9,68.5,9,155,.,.,16.02,0.00,0.00
15min,AgWx,beryljct,423,07JUL2019:20:15:00,79.1,13.17,76.4,76.1,76.9,77.9,76.0,20,22,19,0.643,33.1,34.6,31.6,12.85,10.2,192,8.8,14.8,0.00146,0.00190,69.7,68.5,9,97,.,.,16.02,0.00,0.00
15min,AgWx,beryljct,423,07JUL2019:20:30:00,77.5,13.14,74.1,74.3,75.3,76.4,74.3,22,23,20,0.636,33.5,35.2,32.7,7.19,9.4,195,9.8,13.8,0.00117,0.00155,69.5,68.5,9,25,.,.,16.02,0.00,0.00
15min,AgWx,beryljct,423,07JUL2019:20:45:00,75.9,13.12,74.2,74.1,74.3,74.8,73.6,21,23,20,0.599,32.2,33.8,31.2,6.883,8.7,191,8.7,14.2,0.00105,0.00142,69.4,68.5,9,12,.,.,16.02,0.00,0.00
15min,AgWx,beryljct,423,07JUL2019:21:00:00,74.3,13.09,70.3,71.3,72.7,74.2,71.3,22,24,21,0.622,31.8,32.5,30.7,5.371,6.7,187,4.7,10.2,0.00078,0.00111,69.2,68.5,10,6,.,.,16.02,0.00,0.00
15min,AgWx,beryljct,423,07JUL2019:21:15:00,72.4,13.08,69.4,69.4,70.1,71.2,69.2,25,26,24,0.624,32.5,33.6,31.9,5.305,5.6,188,4.4,7.7,0.00059,0.00085,69.0,68.5,10,1,.,.,16.03,0.00,0.00
15min,AgWx,beryljct,423,07JUL2019:21:30:00,70.6,13.07,67.3,67.0,68.5,69.5,67.0,27,30,25,0.669,33.2,34.5,32.4,4.867,5.1,188,4.6,7.0,0.00048,0.00071,68.8,68.5,10,0,.,.,16.03,0.00,0.00
15min,AgWx,beryljct,423,07JUL2019:21:45:00,68.9,13.07,66.9,68.0,68.3,69.2,67.0,27,30,24,0.627,32.6,34.3,31.0,3.88,3.9,178,3.7,5.3,0.00032,0.00051,68.6,68.5,9,0,.,.,16.03,0.00,0.00
15min,AgWx,beryljct,423,07JUL2019:22:00:00,67.3,13.06,61.0,61.1,64.3,68.0,60.8,36,47,25,0.791,36.4,40.8,30.9,5.371,4.6,163,15,7.6,0.00032,0.00049,68.3,68.5,10,0,.,.,16.03,0.00,0.00
15min,AgWx,beryljct,423,07JUL2019:22:15:00,65.1,13.05,62.7,61.1,60.8,62.1,58.8,41,48,35,0.652,36.9,39.1,33.6,3.836,3.9,182,6.5,6.3,0.00019,0.00031,68.1,68.5,10,0,.,.,16.03,0.00,0.00
15min,AgWx,beryljct,423,07JUL2019:22:30:00,63.5,13.02,59.0,60.0,61.5,63.1,59.4,35,41,31,0.663,33.7,35.8,31.8,4.056,4.1,184,12,6.4,0.00025,0.00039,67.9,68.4,10,0,.,.,16.04,0.00,0.00
15min,AgWx,beryljct,423,07JUL2019:22:45:00,62.0,13.02,56.6,57.3,58.9,60.6,57.3,39,43,36,0.692,34.1,35.1,32.9,4.757,4.6,190,10,5.4,0.00026,0.00038,67.6,68.5,10,0,.,.,16.04,0.00,0.00
15min,AgWx,beryljct,423,07JUL2019:23:00:00,60.6,13.02,56.6,57.2,57.5,58.5,56.5,42,46,39,0.692,34.6,36.1,33.8,4.954,5.2,194,8.7,6.3,0.00027,0.00040,67.4,68.4,10,0,.,.,16.04,0.00,0.00
15min,AgWx,beryljct,423,07JUL2019:23:15:00,59.6,13,57.1,57.2,57.0,57.7,56.1,44,47,42,0.697,35.3,36.2,34.7,4.735,5.2,199,4.5,6.8,0.00026,0.00037,67.1,68.4,10,0,.,.,16.04,0.00,0.00
15min,AgWx,beryljct,423,07JUL2019:23:30:00,58.7,13,57.8,58.4,57.0,58.4,56.1,44,48,40,0.662,35.5,36.6,34.0,3.31,4.4,182,7.2,5.3,0.00020,0.00030,66.9,68.3,9,0,.,.,16.04,0.00,0.00
15min,AgWx,beryljct,423,07JUL2019:23:45:00,57.9,12.99,54.6,54.6,56.4,58.4,54.6,45,49,40,0.708,35.2,36.0,34.1,4.187,3.9,177,3.2,4.9,0.00015,0.00024,66.6,68.3,10,0,.,.,16.04,0.00,0.00
15min,AgWx,beryljct,423,08JUL2019:00:00:00,57.2,12.98,53.5,55.0,55.3,55.8,54.6,45,49,43,0.672,34.5,35.7,33.4,3.858,5.1,167,9.2,7.5,0.00024,0.00034,66.4,68.2,9,0,.,.,16.04,0.00,0.00
15min,AgWx,beryljct,423,08JUL2019:00:15:00,56.8,12.97,57.4,57.2,56.2,57.3,54.6,41,47,39,0.645,32.9,34.5,32.1,6.599,5.5,172,6.3,6.8,0.00029,0.00042,66.1,68.1,9,0,.,.,16.05,0.00,0.00
15min,AgWx,beryljct,423,08JUL2019:00:30:00,57.1,12.95,58.0,57.7,58.2,58.8,57.2,38,41,37,0.634,33.0,33.7,32.4,5.349,6.0,171,6.4,7.5,0.00037,0.00052,65.9,68.1,10,0,.,.,16.05,0.00,0.00
15min,AgWx,bigpiney,439,07JUL2019:00:00:00,53.6,12.79,46.6,46.9,49.3,51.2,46.9,71,78,63,0.852,40.2,41.3,39.2,2.017,2.3,229,12,4.0,0.00001,0.00003,52.5,49.6,54,0,0,0.0,3.88,0.00,0.00
15min,AgWx,bigpiney,439,07JUL2019:00:15:00,52.8,12.77,48.3,47.9,47.1,47.9,46.6,80,82,76,0.860,41.2,41.7,40.5,1.951,2.1,270,15,3.4,-0.00003,-0.00004,52.5,49.6,54,0,0,0.0,3.88,0.00,0.00
15min,AgWx,bigpiney,439,07JUL2019:00:30:00,52.1,12.76,44.6,44.6,46.1,47.9,44.6,82,85,76,0.848,40.9,41.6,40.3,2.981,1.6,206,19,3.4,-0.00006,-0.00008,52.4,49.6,54,0,0,0.0,3.88,0.00,0.00
15min,AgWx,bigpiney,439,07JUL2019:00:45:00,51.3,12.76,43.8,43.7,44.1,44.6,43.7,86,87,85,0.827,40.1,40.6,39.6,3.442,2.4,219,12,3.6,-0.00005,-0.00005,52.4,49.7,54,0,0,0.0,3.88,0.00,0.00
15min,AgWx,bigpiney,439,07JUL2019:01:00:00,50.4,12.74,43.5,43.2,43.3,43.6,43.2,86,87,85,0.816,39.5,39.7,39.1,0,2.1,213,11,3.4,-0.00005,-0.00007,52.4,49.7,54,0,0,0.0,3.88,0.00,0.00
15min,AgWx,bigpiney,439,07JUL2019:01:15:00,49.6,12.74,43.7,43.3,43.2,43.5,42.9,86,87,85,0.811,39.3,39.7,39.0,0.965,0.8,170,41,3.1,-0.00010,-0.00015,52.3,49.7,54,0,0,0.0,3.88,0.00,0.00
15min,AgWx,bigpiney,439,07JUL2019:01:30:00,49.0,12.73,43.4,43.9,43.2,44.0,42.7,86,88,82,0.802,39.3,39.9,38.9,0,1.4,122,35,2.5,-0.00008,-0.00010,52.3,49.7,54,0,0,0.0,3.88,0.00,0.00
15min,AgWx,bigpiney,439,07JUL2019:01:45:00,48.3,12.72,44.0,43.7,43.6,43.9,43.3,86,89,82,0.864,39.6,40.8,38.5,1.25,1.3,228,30,3.0,-0.00008,-0.00011,52.3,49.7,54,0,0,0.0,3.88,0.00,0.00
15min,AgWx,bigpiney,439,07JUL2019:02:00:00,47.9,12.71,44.8,44.0,43.8,44.1,43.7,89,90,86,0.839,40.9,41.2,40.0,1.074,0.8,267,9.9,1.9,-0.00011,-0.00015,52.2,49.7,54,0,0,0.0,3.88,0.00,0.00
15min,AgWx,bigpiney,439,07JUL2019:02:15:00,47.5,12.7,43.3,43.3,43.9,44.2,43.3,83,86,82,0.785,39.1,40.1,38.3,3.047,2.7,283,7.1,4.1,-0.00003,-0.00003,52.2,49.7,54,0,0,0.0,3.88,0.00,0.00
15min,AgWx,bigpiney,439,07JUL2019:02:30:00,47.3,12.69,44.1,43.7,43.2,43.7,42.9,81,83,78,0.750,37.8,38.3,37.2,3.793,3.1,292,9.3,4.2,-0.00001,0.00000,52.1,49.7,54,0,0,0.0,3.88,0.00,0.00
15min,AgWx,bigpiney,439,07JUL2019:02:45:00,47.0,12.68,44.0,43.7,43.7,43.9,43.5,78,80,77,0.752,37.3,37.6,37.0,2.587,2.6,307,10,4.3,-0.00001,-0.00000,52.0,49.8,54,0,0,0.0,3.88,0.00,0.00
15min,AgWx,bigpiney,439,07JUL2019:03:00:00,46.8,12.67,43.8,43.5,43.8,44.0,43.5,79,81,77,0.771,37.6,38.2,37.0,1.6,1.9,285,32,3.1,-0.00004,-0.00004,52.0,49.7,54,0,0,0.0,3.88,0.00,0.00
15min,AgWx,bigpiney,439,07JUL2019:03:15:00,46.5,12.66,40.3,40.3,41.0,43.6,40.2,86,90,80,0.758,37.2,37.9,36.6,3.946,3.4,207,13,5.2,-0.00002,-0.00002,51.9,49.8,54,0,0,0.0,3.88,0.00,0.00
15min,AgWx,bigpiney,439,07JUL2019:03:30:00,46.0,12.65,40.5,40.2,40.2,40.3,40.1,90,90,89,0.757,37.4,37.5,37.2,3.902,4.0,224,8.8,5.0,-0.00003,-0.00002,51.9,49.8,54,0,0,0.0,3.88,0.00,0.00
15min,AgWx,bigpiney,439,07JUL2019:03:45:00,45.6,12.64,42.5,41.9,41.3,41.9,40.2,89,90,88,0.792,38.3,39.0,37.3,2.192,2.9,237,7.1,4.2,-0.00004,-0.00005,51.8,49.8,54,0,0,0.0,3.88,0.00,0.00
15min,AgWx,bigpiney,439,07JUL2019:04:00:00,45.5,12.63,42.1,42.2,42.5,42.9,41.9,88,88,87,0.805,39.1,39.6,38.6,2.126,2.1,231,9.0,2.7,-0.00006,-0.00007,51.8,49.8,54,0,0,0.0,3.88,0.00,0.00
15min,AgWx,bigpiney,439,07JUL2019:04:15:00,45.5,12.63,41.5,41.2,41.5,42.1,41.1,88,89,88,0.770,38.3,38.9,37.8,3.814,3.2,220,7.1,4.1,-0.00004,-0.00004,51.7,49.7,54,0,0,0.0,3.88,0.00,0.00
15min,AgWx,bigpiney,439,07JUL2019:04:30:00,45.5,12.62,44.9,44.0,42.2,44.1,41.1,87,88,84,0.826,38.6,39.7,37.6,2.017,2.8,243,12,4.1,-0.00004,-0.00004,51.6,49.8,54,0,0,0.0,3.88,0.00,0.00
15min,AgWx,bigpiney,439,07JUL2019:04:45:00,45.7,12.61,43.1,43.1,44.2,44.9,43.1,84,88,81,0.832,39.5,40.0,39.2,0.877,1.7,354,56,2.9,-0.00006,-0.00008,51.5,49.7,54,0,0,0.0,3.88,0.00,0.00
15min,AgWx,bigpiney,439,07JUL2019:05:00:00,45.9,12.59,42.7,42.6,42.7,43.1,42.5,88,89,88,0.818,39.5,39.8,39.2,1.447,0.8,327,72,1.8,-0.00010,-0.00015,51.5,49.7,54,0,0,0.0,3.88,0.00,0.00
15min,AgWx,bigpiney,439,07JUL2019:05:15:00,46.0,12.58,41.9,41.8,42.0,42.7,41.8,90,91,89,0.813,39.4,39.6,39.2,0.921,1.7,160,24,2.3,-0.00008,-0.00010,51.4,49.8,54,0,0,0.0,3.88,0.00,0.00
15min,AgWx,bigpiney,439,07JUL2019:05:30:00,45.8,12.57,41.2,41.5,41.7,41.9,41.5,91,91,90,0.805,39.2,39.5,39.0,2.565,1.4,97,70,4.7,-0.00009,-0.00012,51.3,49.8,54,0,0,0.0,3.88,0.00,0.00
15min,AgWx,bigpiney,439,07JUL2019:05:45:00,45.4,12.57,42.0,41.5,41.0,41.6,40.6,91,92,90,0.810,38.7,39.3,38.3,0,1.5,223,48,3.2,-0.00008,-0.00010,51.2,49.7,54,1,0,0.0,3.88,0.00,0.00
15min,AgWx,bigpiney,439,07JUL2019:06:00:00,45.0,12.57,43.2,42.7,42.1,42.7,41.5,88,91,83,0.772,38.7,39.4,37.9,1.82,1.6,298,18,3.0,-0.00006,-0.00008,51.2,49.7,54,6,0,0.0,3.88,0.00,0.00
15min,AgWx,bigpiney,439,07JUL2019:06:15:00,44.7,12.58,40.2,40.1,41.1,42.8,39.9,87,90,83,0.757,37.5,38.3,37.1,2.916,2.0,218,41,3.5,-0.00030,-0.00029,51.1,49.7,54,18,0,0.0,3.88,0.00,0.00
15min,AgWx,bigpiney,439,07JUL2019:06:30:00,44.4,12.6,40.7,40.4,40.3,40.5,40.1,90,90,89,0.768,37.6,37.9,37.3,2.17,1.7,215,22,2.9,-0.00021,-0.00020,51.0,49.7,54,46,0,0.0,3.88,0.00,0.00
15min,AgWx,bigpiney,439,07JUL2019:06:45:00,44.4,12.63,43.6,42.9,41.5,42.9,40.4,91,91,90,0.841,39.0,40.1,37.8,1.863,2.6,225,9.9,3.7,0.00006,0.00010,51.0,49.7,54,98,0,0.0,3.88,0.00,0.00
15min,AgWx,bigpiney,439,07JUL2019:07:00:00,45.0,12.72,46.1,45.4,44.2,45.4,42.9,87,90,84,0.868,40.6,40.9,40.1,1.052,1.6,229,12,3.0,0.00018,0.00022,50.9,49.7,54,121,0,0.0,3.88,0.00,0.00
15min,AgWx,bigpiney,439,07JUL2019:07:15:00,46.4,12.88,50.8,49.7,47.6,49.7,45.4,83,84,81,0.994,42.6,44.4,40.9,3.836,1.4,229,15,4.6,0.00064,0.00072,50.8,49.7,54,200,0,0.0,3.88,0.00,0.00